www.pogodaiklimat.ru
Время
и дата
10:56 24.05
11:56 24.05
12:56 24.05
13:56 24.05
14:56 24.05
15:56 24.05
16:56 24.05
17:56 24.05
18:56 24.05
19:56 24.05
20:56 24.05
21:56 24.05
22:56 24.05
23:56 24.05
00:56 25.05
01:56 25.05
02:56 25.05
03:56 25.05
04:56 25.05
05:56 25.05
06:56 25.05
07:56 25.05
08:56 25.05
09:56 25.05
10:56 25.05
11:56 25.05
12:56 25.05
13:56 25.05
14:56 25.05
15:56 25.05
16:47 25.05
16:56 25.05
17:03 25.05
17:11 25.05
17:28 25.05
17:56 25.05
18:56 25.05
19:26 25.05
19:56 25.05
20:56 25.05
21:56 25.05
22:56 25.05
23:56 25.05
00:49 26.05
00:56 26.05
01:56 26.05
02:56 26.05
03:56 26.05
Ветер
(напр.,м/с)
Видим. Явления Облачность Т
(С)
Тd
(С)
f
(%)
Тe
(С)
Тes
(С)
Комфортность P
(гПа)
Po
(гПа)
Тmin
(С)
Tmax
(С)
R
(мм)
R24
(мм)
S
(см)
нст 2 16 км 2/0 3600 m
[Ac Ci]
+26.7 +11.7 39 +28 +41 жарко 1011.5 1000.4
С 5 16 км 2/2 1800 m
[Ci]
+28.9 +8.9 29 +29 +37 жарко 1011.0 999.7
СЗ 3 16 км 2/2 1800 м +28.3 +9.4 31 +28 +42 жарко 1010.2 999.0 +20.6 +28.9
З 3 16 км 2/2 1800 м +28.9 +8.3 27 +28 +41 жарко 1009.9 998.7
СЗ 4 16 км 2/2 1800 м +29.4 +11.1 32 +30 +39 жарко 1009.7 998.4
СЗ 4 16 км 2/2 1800 м +29.4 +10.6 31 +30 +36 жарко 1009.2 998.0
З 3 16 км 2/2 1800 m
[Ac]
+29.4 +11.7 34 +30 +36 жарко 1009.1 997.7
СЗ 4 16 км 2/2 1800 м +28.3 +11.1 34 +29 +31 жарко 1008.8 997.7
штиль 0 16 км 2/2 1800 м +25.0 +16.7 60 +29 +30 душно 1009.3 998.0 +25.0 +29.4
штиль 0 16 км 5/2 1800 m
[Ci]
+22.2 +16.7 71 +27 +27 душно 1009.3 998.0
В 2 16 км 2/2 1800 m
[Ci]
+22.8 +15.6 64 +27 +27 душно 1010.0 998.7
С 2 16 км 2/0 2700 m
[Ac]
+22.2 +14.4 61 +25 +25 комфорт 1010.6 999.4
ЮВ 2 16 км ясно +21.1 +15.0 68 +24 +24 комфорт 1010.4 999.0
штиль 0 16 км 2/0 7500 m
[Ci]
+19.4 +15.0 76 +21 +21 комфорт 1010.5 999.4
штиль 0 16 км 5/0 7500 m
[Ci]
+18.9 +15.0 78 +20 +20 1010.3 999.0 +18.9 +26.1
С 2 16 км 5/0 7500 m
[Ci]
+18.9 +15.6 81 +21 +21 комфорт 1010.2 999.0
С 2 16 км 5/0 7500 m
[Ci]
+18.9 +15.6 81 +21 +21 комфорт 1009.8 998.7
В 2 16 км 5/0 7500 m
[Ci]
+17.8 +15.0 84 +18 +18 1010.2 999.0
С 2 16 км 10/0 7500 m
[Ci]
+17.2 +15.0 87 +18 +18 1010.7 999.4
штиль 0 16 км 8/0 7500 m
[Ci]
+17.8 +15.6 87 +18 +18 1011.2 999.7
штиль 0 16 км 8/0 7500 m
[Ci]
+20.0 +13.9 68 +22 +23 комфорт 1011.2 1000.1 +16.7 +20.0
СЗ 2 16 км 8/0 7500 m
[Ci]
+21.1 +14.4 66 +24 +27 комфорт 1012.2 1000.7
ЮЗ 2 16 км 8/0 7500 m
[Ci]
+22.8 +14.4 59 +26 +32 жарко 1011.7 1000.4
нст 2 16 км 8/0 7500 m
[Ci]
+24.4 +15.6 58 +27 +37 жарко 1011.4 1000.1
штиль 0 16 км 8/2 1200 m
[Ci]
+27.2 +16.7 53 +31 +45 душно 1010.6 999.4
ЮВ 3 16 км 8/2 1200 m
[Ci]
+28.3 +16.1 48 +32 +42 душно 1010.2 999.0
Ю 2 16 км 8/5 1200 m
[Ac]
+27.8 +16.7 51 +31 +37 душно 1009.9 998.7 +20.0 +28.9
штиль 0 16 км 8/5 1200 m
[Ac]
+26.1 +20.0 69 +32 +39 очень
душно
1009.4 998.0
Ю 4 16 км 8/2 1050 m
[Ac]
+29.4 +16.1 45 +33 +37 душно 1008.6 997.4
Ю 4 16 км 8/5 1200 m
[Ac]
+28.9 +16.1 46 +32 +35 душно 1008.4 997.0 1.0
СЗ 10
{14}
16 км гроза 10/10 600 m
[Cb]
+23.9 +16.1 62 +27 +27 жарко 998.4
СЗ 10
{16}
16 км гроза, слабый дождь 10/10 600 m
[Cb]
+21.7 +17.2 76 +26 +26 душно 1010.2 999.0
С 6
{14}
13 км гроза, слабый дождь 10/8 900 m
[Ac Cb]
+21.1 +18.3 84 +25 +25 комфорт 998.4
С 7
{11}
16 км гроза со слабым дождем 10/5 900 m
[Ac Cb]
+20.6 +18.3 87 +24 +24 комфорт 998.0
16 км 10/5 900 m
[Ac]
+20.6 +17.2 81 +24 +25 комфорт 997.7
В 3 16 км 10/5 900 m
[Ac]
+21.1 +17.2 78 +25 +25 комфорт 1009.5 998.0
Ю 2 16 км 10/0 3000 m
[Ac]
+21.7 +17.2 76 +26 +26 душно 1009.7 998.4 +20.6 +30.0 1.0
СЗ 5
{13}
10 км сильный дождь 10/8 540 m
[Ac Ns]
+20.6 +17.8 84 +24 +24 комфорт 1000.1
С 2 13 км дождь 10/5 1650 m
[Ac Ns]
+19.4 +17.8 90 +22 +22 комфорт 1011.0 999.7
С 2 16 км 8/0 3300 m
[Ac]
+19.4 +18.3 93 +22 +22 комфорт 1011.6 1000.4
штиль 0 16 км 8/0 2850 m
[Ac]
+19.4 +18.3 93 +21 +21 комфорт 1011.2 999.7 3.8
С 2 14 км 5/0 2850 m
[Ac]
+19.4 +18.3 93 +22 +22 комфорт 1011.1 999.7
СЗ 2 16 км 8/0 2400 m
[Ac]
+18.3 +17.8 97 +19 +19 1011.0 999.7
СЗ 2 13 км 8/8 150 м +18.9 +17.8 93 +21 +21 комфорт 1000.1
З 2 13 км 8/8 150 м +18.9 +17.8 93 +21 +21 комфорт 1011.4 1000.1 +18.3 +22.2 3.8
С 2 11 км 10/10 120 м +18.9 +17.8 93 +21 +21 комфорт 1011.1 999.7
СЗ 2 6 км дымка 10/10 90 м +18.9 +18.3 96 +21 +21 комфорт 1010.9 999.7
С 2 11 км 10/10 120 м +18.3 +17.8 97 +19 +19 1011.2 1000.1
Местоположение метеостанции Harrisburg International Airport: широта 40.1936 долгота -76.7633 высота над уровнем моря 95 м.
В архиве по умолчанию представлена погода в Гаррисберге за последние 1-2 суток. Обновление информации о фактической погоде в базе происходит ежечасно! Архивные данные за месяц целиком и за предыдущие месяцы Вы можете получить, выбрав интересующий диапазон дат из раскрывающегося списка и нажав кнопку "Ввод!".
Внимание! Архив погоды МЕТАР в базе сайта по станциям, не включенным в климатический монитор, хранится не более 60 дней. Нет смысла пытаться выбрать более раннюю дату.
*Определитесь, кто Вы:
Внимание! Время в таблицах - местное (без учета летнего времени). Для получения всемирного времени необходимо вычесть поправку, которая равна -5 ч.
Смотрите также архив погоды в соседних городах и на ближайших метеорологических станциях:
Партнеры нашего сайта:      
Пояснения к столбцам:
  • Ветер - указаны скорость ветра в м/с - средняя за 10 мин, порывы в срок и между сроками (в фигурных скобках) и направление, откуда дует ветер: С - северный,
  • СВ - северо-восточный, В - восточный, ЮВ - юго-восточный, Ю - южный, ЮЗ - юго-западный, З - западный, СЗ - северо-западный.
  • Видимость - горизонтальная дальность видимости в метрах или километрах. При видимости от 1 до 10 км при отсутствии осадков обычно наблюдается дымка, при ухудшении видимости до 1 км и менее - туман. В сухую погоду видимость может ухудшаться дымом, пылью или мглою.
  • Явления - указаны атмосферные явления, наблюдавшиеся в срок или в последний час перед сроком; фигурными скобками обозначены явления, наблюдавшиеся между сроками (за 1-3 часа до срока); квадратными скобками обозначены град или гололедные отложения с указанием их диаметра в мм.
  • Облачность - указаны через наклонную черту общая и нижняя облачность в баллах и высота нижней границы облаков в метрах; квадратными скобками обозначены формы облаков: Ci - перистые, Cs - перисто-слоистые, Cc - перисто-кучевые, Ac - высококучевые, As - высокослоистые, Sc - слоисто-кучевые, Ns - слоисто-дождевые, Cu - кучевые, Cb - кучево-дождевые. Подробнее классификацию облаков см. в Атласе облаков (PDF).
  • T - Температура воздуха - температура, измеренная на высоте 2 м над землей.
  • Td - Температура точки росы - температура, при понижении до которой содержащийся в воздухе водяной пар достигнет насыщения.
  • f - Относительная влажность воздуха - влажноcть воздуха, измеренная на высоте 2 м над землей.
  • Te - Эффективная температура - температура, которую ощущает одетый по сезону человек в тени. Характеристика душности погоды. При расчете учитывается влияние влажности воздуха и скорости ветра на теплоощущения человека.
  • Tes - Эффективная температура на солнце - температура, которую ощущает человек, с поправкой на солнечный нагрев. Характеристика знойности погоды. Зависит от высоты солнца над горизонтом, облачности и скорости ветра. Ночью, в пасмурную погоду, а также при ветре 12 м/с и более поправка равна нулю.
  • P - Атмосферное давление - приведенное к уровню моря атмосферное давление.
  • Po - Атмосферное давление - измеренное на уровне метеостанции атмосферное давление.
  • Tmin - Минимальная температура - минимум температуры воздуха на высоте 2 м над землей.
  • Tmax - Максимальная температура - максимум температуры воздуха на высоте 2 м над землей.
  • R - Количество осадков - Количество выпавших осадков за период времени, мм. При наведении курсора мыши на число - период времени, за который выпало указанное количество осадков.
  • R24 - Количество осадков - Количество выпавших осадков за 24 часа, мм.
  • S - Снежный покров - Высота снежного покрова, см. При наведении курсора мыши на число - состояние снежного покрова и степень покрытия местности в баллах.